This demonstration page uses our WeatherBlox Daily Observations layout. Learn more.

Left ArrowRight Arrow

Hourly Observations for July 22, 2021

Temp ( °F °C ) Dew Point ( °F °C ) Humidity (%) Winds ( mph kmh ) Pressure ( in mb ) Visibility ( mi km ) Precip ( " mm )
12:56 am 00:56 Clear 68 20 60 15.6 76 76 S 10 17 30.03 1017 10 16 0.00 0.00
1:56 am 01:56 Clear 67 19.4 60 15.6 79 79 S 13 20 30.02 1017 10 16 0.00 0.00
2:56 am 02:56 Clear 66 18.9 59 15 78 78 S 12 19 30.02 1017 10 16 0.00 0.00
3:56 am 03:56 Clear 65 18.3 59 15 81 81 S 8 13 30.02 1017 9 14 0.00 0.00
4:56 am 04:56 Clear 64 17.8 59 15 84 84 S 8 13 30.01 1016 9 14 0.00 0.00
5:56 am 05:56 Clear 63 17.2 59 15 87 87 S 10 17 30.02 1017 8 13 0.00 0.00
6:56 am 06:56 Sunny 64 17.8 59 15 84 84 S 9 15 30.03 1017 7 11 0.00 0.00
7:56 am 07:56 Sunny 66 18.9 61 16.1 84 84 S 12 19 30.04 1017 8 13 0.00 0.00
8:56 am 08:56 Sunny 72 22.2 62 16.7 71 71 S 16 26 30.04 1017 9 14 0.00 0.00
9:56 am 09:56 Sunny 76 24.4 64 17.8 67 67 S 15 24 30.03 1017 10 16 0.00 0.00
10:56 am 10:56 Sunny 79 26.1 65 18.3 62 62 S 18 30 30.02 1017 10 16 0.00 0.00
11:56 am 11:56 Sunny 81 27.2 66 18.9 61 61 S 15 24 30.02 1017 10 16 0.00 0.00
12:56 pm 12:56 Sunny 83 28.3 67 19.4 59 59 S 13 20 30.01 1016 10 16 0.00 0.00
1:56 pm 13:56 Sunny 85 29.4 68 20 57 57 S 13 20 30.00 1016 10 16 0.00 0.00
2:56 pm 14:56 Sunny 86 30 68 20 55 55 S 14 22 29.99 1016 10 16 0.00 0.00
3:56 pm 15:56 Sunny 88 31.1 69 20.6 54 54 S 12 19 29.97 1015 10 16 0.00 0.00
4:56 pm 16:56 Sunny 88 31.1 67 19.4 50 50 SSE 16 26 29.96 1015 10 16 0.00 0.00
5:56 pm 17:56 Sunny 88 31.1 68 20 52 52 SSE 14 22 29.95 1014 10 16 0.00 0.00
6:56 pm 18:56 Sunny 86 30 69 20.6 57 57 SSE 14 22 29.93 1014 10 16 0.00 0.00
7:56 pm 19:56 Sunny 83 28.3 69 20.6 63 63 SSE 10 17 29.93 1013 10 16 0.00 0.00
8:56 pm 20:56 Sunny 77 25 68 20 74 74 SE 8 13 29.93 1014 10 16 0.00 0.00
9:56 pm 21:56 Clear 75 23.9 66 18.9 74 74 SSE 10 17 29.94 1014 10 16 0.00 0.00
10:56 pm 22:56 Clear 74 23.3 63 17.2 69 69 SSE 10 17 29.96 1015 10 16 0.00 0.00
11:56 pm 23:56 Clear 72 22.2 63 17.2 73 73 SSE 9 15 29.97 1015 10 16 0.00 0.00

Powered by AerisWeather